<?xml version="1.0" encoding="UTF-8" standalone="no" ?>
<gpx xmlns="http://www.topografix.com/GPX/1/1" xmlns:xsi="http://www.w3.org/2001/XMLSchema-instance" xsi:schemaLocation="http://www.topografix.com/GPX/1/1 http://www.topografix.com/GPX/1/1/gpx.xsd" version="1.1" creator="VisuGPX - https://www.visugpx.com">
  <metadata>
    <name>Noizé la pierre à pineau</name>
    <desc><![CDATA[Noizé la pierre à pineau deux-sevres]]></desc>
  </metadata>
  <trk>
    <name><![CDATA[track]]></name>
    <trkseg>
      <trkpt lat="46.90236" lon="-0.09093">
        <ele>81</ele>
        <time>2008-01-22T08:56:36Z</time>
      </trkpt>
      <trkpt lat="46.90216" lon="-0.09134">
        <ele>81</ele>
        <time>2008-01-22T08:56:36Z</time>
      </trkpt>
      <trkpt lat="46.90216" lon="-0.09226">
        <ele>83</ele>
        <time>2008-01-22T08:56:36Z</time>
      </trkpt>
      <trkpt lat="46.90217" lon="-0.09388">
        <ele>88</ele>
        <time>2008-01-22T08:56:36Z</time>
      </trkpt>
      <trkpt lat="46.90222" lon="-0.09484">
        <ele>92</ele>
        <time>2008-01-22T08:56:36Z</time>
      </trkpt>
      <trkpt lat="46.90231" lon="-0.09626">
        <ele>97</ele>
        <time>2008-01-22T08:56:36Z</time>
      </trkpt>
      <trkpt lat="46.90238" lon="-0.09667">
        <ele>98</ele>
        <time>2008-01-22T08:56:36Z</time>
      </trkpt>
      <trkpt lat="46.90266" lon="-0.09752">
        <ele>99</ele>
        <time>2008-01-22T08:56:36Z</time>
      </trkpt>
      <trkpt lat="46.9032" lon="-0.09895">
        <ele>98</ele>
        <time>2008-01-22T08:56:36Z</time>
      </trkpt>
      <trkpt lat="46.90342" lon="-0.09913">
        <ele>96</ele>
        <time>2008-01-22T08:56:36Z</time>
      </trkpt>
      <trkpt lat="46.90407" lon="-0.09993">
        <ele>91</ele>
        <time>2008-01-22T08:56:36Z</time>
      </trkpt>
      <trkpt lat="46.90458" lon="-0.10056">
        <ele>89</ele>
        <time>2008-01-22T08:56:36Z</time>
      </trkpt>
      <trkpt lat="46.90499" lon="-0.10088">
        <ele>87</ele>
        <time>2008-01-22T08:56:36Z</time>
      </trkpt>
      <trkpt lat="46.90529" lon="-0.10127">
        <ele>86</ele>
        <time>2008-01-22T08:56:36Z</time>
      </trkpt>
      <trkpt lat="46.90545" lon="-0.10164">
        <ele>86</ele>
        <time>2008-01-22T08:56:36Z</time>
      </trkpt>
      <trkpt lat="46.90559" lon="-0.10194">
        <ele>86</ele>
        <time>2008-01-22T08:56:36Z</time>
      </trkpt>
      <trkpt lat="46.90575" lon="-0.10207">
        <ele>87</ele>
        <time>2008-01-22T08:56:36Z</time>
      </trkpt>
      <trkpt lat="46.90603" lon="-0.10227">
        <ele>87</ele>
        <time>2008-01-22T08:56:36Z</time>
      </trkpt>
      <trkpt lat="46.90618" lon="-0.10242">
        <ele>86</ele>
        <time>2008-01-22T08:56:36Z</time>
      </trkpt>
      <trkpt lat="46.9065" lon="-0.10302">
        <ele>87</ele>
        <time>2008-01-22T08:56:36Z</time>
      </trkpt>
      <trkpt lat="46.90665" lon="-0.10313">
        <ele>87</ele>
        <time>2008-01-22T08:56:36Z</time>
      </trkpt>
      <trkpt lat="46.90689" lon="-0.10312">
        <ele>86</ele>
        <time>2008-01-22T08:56:36Z</time>
      </trkpt>
      <trkpt lat="46.90726" lon="-0.10301">
        <ele>85</ele>
        <time>2008-01-22T08:56:36Z</time>
      </trkpt>
      <trkpt lat="46.90741" lon="-0.10294">
        <ele>85</ele>
        <time>2008-01-22T08:56:36Z</time>
      </trkpt>
      <trkpt lat="46.90751" lon="-0.103">
        <ele>84</ele>
        <time>2008-01-22T08:56:36Z</time>
      </trkpt>
      <trkpt lat="46.90783" lon="-0.10368">
        <ele>84</ele>
        <time>2008-01-22T08:56:36Z</time>
      </trkpt>
      <trkpt lat="46.90801" lon="-0.10397">
        <ele>84</ele>
        <time>2008-01-22T08:56:36Z</time>
      </trkpt>
      <trkpt lat="46.9081" lon="-0.10414">
        <ele>83</ele>
        <time>2008-01-22T08:56:36Z</time>
      </trkpt>
      <trkpt lat="46.90813" lon="-0.10436">
        <ele>83</ele>
        <time>2008-01-22T08:56:36Z</time>
      </trkpt>
      <trkpt lat="46.90811" lon="-0.10463">
        <ele>83</ele>
        <time>2008-01-22T08:56:36Z</time>
      </trkpt>
      <trkpt lat="46.90801" lon="-0.10481">
        <ele>83</ele>
        <time>2008-01-22T08:56:36Z</time>
      </trkpt>
      <trkpt lat="46.90782" lon="-0.10495">
        <ele>84</ele>
        <time>2008-01-22T08:56:36Z</time>
      </trkpt>
      <trkpt lat="46.90736" lon="-0.10526">
        <ele>85</ele>
        <time>2008-01-22T08:56:36Z</time>
      </trkpt>
      <trkpt lat="46.9068" lon="-0.10569">
        <ele>88</ele>
        <time>2008-01-22T08:56:36Z</time>
      </trkpt>
      <trkpt lat="46.90647" lon="-0.10602">
        <ele>91</ele>
        <time>2008-01-22T08:56:36Z</time>
      </trkpt>
      <trkpt lat="46.90624" lon="-0.10633">
        <ele>93</ele>
        <time>2008-01-22T08:56:36Z</time>
      </trkpt>
      <trkpt lat="46.90564" lon="-0.10747">
        <ele>97</ele>
        <time>2008-01-22T08:56:36Z</time>
      </trkpt>
      <trkpt lat="46.90513" lon="-0.10842">
        <ele>98</ele>
        <time>2008-01-22T08:56:36Z</time>
      </trkpt>
      <trkpt lat="46.90418" lon="-0.10978">
        <ele>95</ele>
        <time>2008-01-22T08:56:36Z</time>
      </trkpt>
      <trkpt lat="46.90326" lon="-0.11109">
        <ele>93</ele>
        <time>2008-01-22T08:56:36Z</time>
      </trkpt>
      <trkpt lat="46.90265" lon="-0.11188">
        <ele>93</ele>
        <time>2008-01-22T08:56:36Z</time>
      </trkpt>
      <trkpt lat="46.90201" lon="-0.11104">
        <ele>93</ele>
        <time>2008-01-22T08:56:36Z</time>
      </trkpt>
      <trkpt lat="46.90116" lon="-0.11023">
        <ele>93</ele>
        <time>2008-01-22T08:56:36Z</time>
      </trkpt>
      <trkpt lat="46.90015" lon="-0.10908">
        <ele>94</ele>
        <time>2008-01-22T08:56:36Z</time>
      </trkpt>
      <trkpt lat="46.89948" lon="-0.10844">
        <ele>94</ele>
        <time>2008-01-22T08:56:36Z</time>
      </trkpt>
      <trkpt lat="46.89894" lon="-0.10801">
        <ele>94</ele>
        <time>2008-01-22T08:56:36Z</time>
      </trkpt>
      <trkpt lat="46.89819" lon="-0.1079">
        <ele>94</ele>
        <time>2008-01-22T08:56:36Z</time>
      </trkpt>
      <trkpt lat="46.89782" lon="-0.10783">
        <ele>94</ele>
        <time>2008-01-22T08:56:36Z</time>
      </trkpt>
      <trkpt lat="46.89748" lon="-0.1077">
        <ele>94</ele>
        <time>2008-01-22T08:56:36Z</time>
      </trkpt>
      <trkpt lat="46.89665" lon="-0.10759">
        <ele>95</ele>
        <time>2008-01-22T08:56:36Z</time>
      </trkpt>
      <trkpt lat="46.89611" lon="-0.10749">
        <ele>96</ele>
        <time>2008-01-22T08:56:36Z</time>
      </trkpt>
      <trkpt lat="46.89558" lon="-0.10749">
        <ele>96</ele>
        <time>2008-01-22T08:56:36Z</time>
      </trkpt>
      <trkpt lat="46.89519" lon="-0.10754">
        <ele>96</ele>
        <time>2008-01-22T08:56:36Z</time>
      </trkpt>
      <trkpt lat="46.89459" lon="-0.10748">
        <ele>97</ele>
        <time>2008-01-22T08:56:36Z</time>
      </trkpt>
      <trkpt lat="46.89412" lon="-0.10736">
        <ele>97</ele>
        <time>2008-01-22T08:56:36Z</time>
      </trkpt>
      <trkpt lat="46.89365" lon="-0.10708">
        <ele>98</ele>
        <time>2008-01-22T08:56:36Z</time>
      </trkpt>
      <trkpt lat="46.89319" lon="-0.10672">
        <ele>98</ele>
        <time>2008-01-22T08:56:36Z</time>
      </trkpt>
      <trkpt lat="46.89272" lon="-0.10607">
        <ele>98</ele>
        <time>2008-01-22T08:56:36Z</time>
      </trkpt>
      <trkpt lat="46.89245" lon="-0.10582">
        <ele>98</ele>
        <time>2008-01-22T08:56:36Z</time>
      </trkpt>
      <trkpt lat="46.89222" lon="-0.10569">
        <ele>98</ele>
        <time>2008-01-22T08:56:36Z</time>
      </trkpt>
      <trkpt lat="46.89194" lon="-0.10558">
        <ele>98</ele>
        <time>2008-01-22T08:56:36Z</time>
      </trkpt>
      <trkpt lat="46.89222" lon="-0.10481">
        <ele>98</ele>
        <time>2008-01-22T08:56:36Z</time>
      </trkpt>
      <trkpt lat="46.89244" lon="-0.10403">
        <ele>98</ele>
        <time>2008-01-22T08:56:36Z</time>
      </trkpt>
      <trkpt lat="46.89271" lon="-0.10279">
        <ele>98</ele>
        <time>2008-01-22T08:56:36Z</time>
      </trkpt>
      <trkpt lat="46.89291" lon="-0.10148">
        <ele>98</ele>
        <time>2008-01-22T08:56:36Z</time>
      </trkpt>
      <trkpt lat="46.89319" lon="-0.10034">
        <ele>98</ele>
        <time>2008-01-22T08:56:36Z</time>
      </trkpt>
      <trkpt lat="46.89325" lon="-0.0999">
        <ele>98</ele>
        <time>2008-01-22T08:56:36Z</time>
      </trkpt>
      <trkpt lat="46.89326" lon="-0.09943">
        <ele>97</ele>
        <time>2008-01-22T08:56:36Z</time>
      </trkpt>
      <trkpt lat="46.89321" lon="-0.09838">
        <ele>97</ele>
        <time>2008-01-22T08:56:36Z</time>
      </trkpt>
      <trkpt lat="46.89317" lon="-0.09765">
        <ele>96</ele>
        <time>2008-01-22T08:56:36Z</time>
      </trkpt>
      <trkpt lat="46.89323" lon="-0.09631">
        <ele>94</ele>
        <time>2008-01-22T08:56:36Z</time>
      </trkpt>
      <trkpt lat="46.89328" lon="-0.09537">
        <ele>93</ele>
        <time>2008-01-22T08:56:36Z</time>
      </trkpt>
      <trkpt lat="46.89335" lon="-0.09373">
        <ele>93</ele>
        <time>2008-01-22T08:56:36Z</time>
      </trkpt>
      <trkpt lat="46.89343" lon="-0.09243">
        <ele>94</ele>
        <time>2008-01-22T08:56:36Z</time>
      </trkpt>
      <trkpt lat="46.8935" lon="-0.09181">
        <ele>94</ele>
        <time>2008-01-22T08:56:36Z</time>
      </trkpt>
      <trkpt lat="46.89372" lon="-0.09093">
        <ele>94</ele>
        <time>2008-01-22T08:56:36Z</time>
      </trkpt>
      <trkpt lat="46.89393" lon="-0.09008">
        <ele>94</ele>
        <time>2008-01-22T08:56:36Z</time>
      </trkpt>
      <trkpt lat="46.8942" lon="-0.08926">
        <ele>95</ele>
        <time>2008-01-22T08:56:36Z</time>
      </trkpt>
      <trkpt lat="46.89434" lon="-0.08845">
        <ele>96</ele>
        <time>2008-01-22T08:56:36Z</time>
      </trkpt>
      <trkpt lat="46.89446" lon="-0.08746">
        <ele>97</ele>
        <time>2008-01-22T08:56:36Z</time>
      </trkpt>
      <trkpt lat="46.89448" lon="-0.08685">
        <ele>98</ele>
        <time>2008-01-22T08:56:36Z</time>
      </trkpt>
      <trkpt lat="46.89445" lon="-0.08577">
        <ele>100</ele>
        <time>2008-01-22T08:56:36Z</time>
      </trkpt>
      <trkpt lat="46.89469" lon="-0.08625">
        <ele>99</ele>
        <time>2008-01-22T08:56:36Z</time>
      </trkpt>
      <trkpt lat="46.89526" lon="-0.08722">
        <ele>97</ele>
        <time>2008-01-22T08:56:36Z</time>
      </trkpt>
      <trkpt lat="46.89551" lon="-0.0877">
        <ele>96</ele>
        <time>2008-01-22T08:56:36Z</time>
      </trkpt>
      <trkpt lat="46.89589" lon="-0.08867">
        <ele>95</ele>
        <time>2008-01-22T08:56:36Z</time>
      </trkpt>
      <trkpt lat="46.89644" lon="-0.09015">
        <ele>92</ele>
        <time>2008-01-22T08:56:36Z</time>
      </trkpt>
      <trkpt lat="46.89677" lon="-0.09102">
        <ele>90</ele>
        <time>2008-01-22T08:56:36Z</time>
      </trkpt>
      <trkpt lat="46.89708" lon="-0.09183">
        <ele>89</ele>
        <time>2008-01-22T08:56:36Z</time>
      </trkpt>
      <trkpt lat="46.89719" lon="-0.09192">
        <ele>89</ele>
        <time>2008-01-22T08:56:36Z</time>
      </trkpt>
      <trkpt lat="46.89807" lon="-0.092">
        <ele>89</ele>
        <time>2008-01-22T08:56:36Z</time>
      </trkpt>
      <trkpt lat="46.89898" lon="-0.09207">
        <ele>87</ele>
        <time>2008-01-22T08:56:36Z</time>
      </trkpt>
      <trkpt lat="46.89938" lon="-0.09203">
        <ele>86</ele>
        <time>2008-01-22T08:56:36Z</time>
      </trkpt>
      <trkpt lat="46.9004" lon="-0.09186">
        <ele>82</ele>
        <time>2008-01-22T08:56:36Z</time>
      </trkpt>
      <trkpt lat="46.90136" lon="-0.09157">
        <ele>81</ele>
        <time>2008-01-22T08:56:36Z</time>
      </trkpt>
      <trkpt lat="46.90216" lon="-0.09134">
        <ele>81</ele>
        <time>2008-01-22T08:56:36Z</time>
      </trkpt>
      <trkpt lat="46.90237" lon="-0.09093">
        <ele>81</ele>
        <time>2008-01-22T08:56:36Z</time>
      </trkpt>
    </trkseg>
  </trk>
</gpx>